Location: Chippewa Lake
(41.0698°N, 81.9010°W)
Time: 20:14:02
(UTC+00:00)

Cosmos 2221 - Pass Details

Date: 09 May 2021
Orbit: 592 x 615 km, 82.5° (Epoch: 17 June)

Event Time Altitude Azimuth Distance (km) Brightness Sun altitude
Rises 00:53:01 0° 180° (S) 2,828 5.7 -4.4°
Reaches altitude 10° 00:55:13 10° 178° (S) 1,934 4.8 -4.7°
Maximum altitude 00:59:28 69° 95° (E) 646 2.5 -5.4°
Drops below altitude 10° 01:03:47 10° 13° (NNE) 1,964 5.4 -6.1°
Sets 01:06:02 0° 11° (N) 2,877 6.3 -6.5°
